Weather History for Meriden, CT

Change the Weather History Date:

Saturday, August 3, 2013

  Actual Average (KHVN) Record (KHVN)
Temperature  
Mean Temperature 70 °F -  
Max Temperature 78 °F 78 °F 100 °F (1975)
Min Temperature 62 °F 63 °F 57 °F (1976)
Cooling Degree Days 4    
Growing Degree Days 20 (Base 50)    
Moisture  
Dew Point 63 °F    
Average Humidity 85    
Maximum Humidity 100    
Minimum Humidity 64    
Precipitation  
Precipitation 0.01 in - - ()
Sea Level Pressure  
Sea Level Pressure 29.87 in    
Wind  
Wind Speed 2 mph (SSW)    
Max Wind Speed 9 mph    
Max Gust Speed -    
Visibility 7 miles    
Events Rain    
Averages and records for this station are not official NWS values.
T = Trace of Precipitation, MM = Missing Value Source: NWS Daily Summary

Daily Weather History Graph

Daily Weather History Graph

Search for Another Location

Airport:

Trip Planner

Search our weather history database for the weather conditions in past years. The results will help you decide how hot, cold, wet, or windy it might be!

Date:

Astronomy

Aug. 03, 2013 Rise Set
Actual Time 5:48 AM EDT 8:06 PM EDT
Civil Twilight 5:17 AM EDT 8:36 PM EDT
Nautical Twilight 4:38 AM EDT 9:15 PM EDT
Astronomical Twilight 3:56 AM EDT 9:57 PM EDT
Moon 2:54 AM EDT (8/3) 5:46 PM EDT (8/3)
Length of Visible Light 15h 19m
Length of Day
14h 17m
Waning Crescent, 9% of the Moon is Illuminated
Aug 3
Waning Crescent
Aug 6
New
Aug 14
First Quarter
Aug 20
Full
Aug 28
Last Quarter

Hourly Weather History & Observations

Time (EDT) Temp. Dew Point Humidity Pressure Visibility Wind Dir Wind Speed Gust Speed Precip Events Conditions
12:53 AM 70.0 °F 60.1 °F 71% 29.88 in 10.0 mi Calm Calm - N/A   Clear
1:53 AM 64.9 °F 61.0 °F 87% 29.87 in 10.0 mi Calm Calm - N/A   Clear
2:53 AM 64.0 °F 61.0 °F 90% 29.86 in 10.0 mi Calm Calm - N/A   Clear
3:53 AM 64.0 °F 60.1 °F 87% 29.85 in 10.0 mi Calm Calm - N/A   Clear
4:53 AM 63.0 °F 61.0 °F 93% 29.87 in 8.0 mi Calm Calm - N/A   Clear
5:53 AM 64.0 °F 61.0 °F 90% 29.88 in 8.0 mi South 6.9 mph - 0.00 in Rain Light Rain
6:53 AM 66.0 °F 60.1 °F 81% 29.88 in 10.0 mi SSE 4.6 mph - 0.00 in   Overcast
7:53 AM 68.0 °F 61.0 °F 78% 29.88 in 10.0 mi SSW 6.9 mph - N/A   Overcast
8:53 AM 68.0 °F 62.1 °F 81% 29.88 in 8.0 mi Calm Calm - 0.00 in Rain Light Rain
9:53 AM 68.0 °F 63.0 °F 84% 29.88 in 10.0 mi Variable 5.8 mph - 0.00 in   Scattered Clouds
10:53 AM 69.1 °F 63.0 °F 81% 29.88 in 10.0 mi WSW 4.6 mph - 0.00 in Rain Light Rain
11:53 AM 70.0 °F 64.0 °F 81% 29.88 in 10.0 mi South 4.6 mph - 0.00 in   Scattered Clouds
12:32 PM 71.6 °F 64.4 °F 78% 29.88 in 10.0 mi SSW 8.1 mph - N/A   Mostly Cloudy
12:53 PM 72.0 °F 64.0 °F 76% 29.88 in 10.0 mi Variable 5.8 mph - N/A   Mostly Cloudy
1:04 PM 71.6 °F 64.4 °F 78% 29.88 in 10.0 mi SW 6.9 mph - N/A   Scattered Clouds
1:53 PM 73.0 °F 64.0 °F 73% 29.87 in 10.0 mi SW 4.6 mph - N/A   Clear
2:53 PM 73.9 °F 64.0 °F 71% 29.86 in 10.0 mi South 4.6 mph - N/A   Clear
3:53 PM 75.9 °F 64.0 °F 67% 29.84 in 10.0 mi SSW 9.2 mph - N/A   Clear
4:53 PM 77.0 °F 64.0 °F 64% 29.83 in 10.0 mi SSW 6.9 mph - N/A   Mostly Cloudy
5:53 PM 73.0 °F 64.9 °F 76% 29.83 in 6.0 mi WSW 3.5 mph - 0.00 in Rain Light Rain
6:53 PM 73.0 °F 66.0 °F 79% 29.82 in 10.0 mi South 6.9 mph - 0.01 in   Clear
7:53 PM 69.1 °F 66.0 °F 90% 29.84 in 9.0 mi Calm Calm - N/A   Clear
8:53 PM 66.9 °F 64.9 °F 93% 29.86 in 7.0 mi Calm Calm - N/A   Clear
9:53 PM 66.0 °F 64.0 °F 93% 29.87 in 5.0 mi Calm Calm - N/A   Clear
10:28 PM 64.4 °F 62.6 °F 94% 29.88 in 2.5 mi Calm Calm - N/A   Clear
10:41 PM 64.4 °F 62.6 °F 94% 29.88 in 3.0 mi Calm Calm - N/A   Clear
10:50 PM 64.4 °F 62.6 °F 94% 29.88 in 2.0 mi Calm Calm - N/A   Clear
10:53 PM 64.9 °F 63.0 °F 93% 29.88 in 2.0 mi Calm Calm - N/A   Clear
11:01 PM 64.4 °F 62.6 °F 94% 29.88 in 4.0 mi Calm Calm - N/A   Clear
11:41 PM 62.6 °F 62.6 °F 100% 29.88 in 2.5 mi Calm Calm - N/A   Clear
11:46 PM 64.4 °F 62.6 °F 94% 29.88 in 1.8 mi Calm Calm - N/A   Partly Cloudy
11:53 PM 63.0 °F 62.1 °F 97% 29.87 in 1.5 mi Calm Calm - N/A   Partly Cloudy
11:58 PM 62.6 °F 62.6 °F 100% 29.87 in 3.0 mi Calm Calm - N/A   Clear